Wind_Speed
41 41 39 39 40 39 37 37 37 37 37 36 35 35 35 36 36 36 36 36 35 35 35 35 36 36 37 37 38 37 36 36 34 31 28 27 26 26 27 28 28 28 28
41 41 41 38 37 35 36 37 38 39 38 38 38 38 38 38 39 40 40 38 37 36 35 35 36 38 39 40 41 41 40 39 37 34 31 28 27 27 27 27 27 28 28
43 44 43 42 42 40 39 39 40 41 40 40 40 40 40 40 41 41 40 39 38 37 37 37 38 40 41 42 42 43 42 41 39 37 34 30 28 28 28 27 27 27 27
46 44 43 42 42 41 41 40 41 42 41 41 41 40 40 40 40 40 40 39 39 39 39 40 41 42 42 43 43 44 44 42 40 38 36 33 31 30 29 29 29 29 28
45 43 42 41 41 41 41 40 40 41 40 40 41 40 40 39 38 38 38 38 39 39 41 42 42 42 43 43 44 44 44 42 40 39 36 34 32 31 30 30 31 30 30
45 44 43 43 43 42 40 38 38 38 38 38 38 38 38 37 37 37 37 38 39 41 42 44 44 43 43 43 42 42 42 41 39 38 36 35 33 32 31 30 31 32 32
49 48 47 46 45 43 40 39 38 37 37 37 37 37 37 37 38 38 39 40 42 43 44 45 45 44 43 42 40 40 39 38 37 36 35 34 34 33 32 32 33 34 33
50 52 52 51 50 48 45 43 42 41 40 40 40 40 40 40 40 41 42 43 44 45 45 45 44 43 41 39 37 36 36 35 35 35 34 34 34 34 34 34 33 33 34
50 52 54 54 53 51 50 49 47 46 45 45 45 45 44 44 44 44 45 45 46 46 45 43 41 39 36 34 33 32 32 32 32 32 32 33 34 34 34 34 34 33 32
51 51 52 52 52 51 52 51 49 48 47 47 47 46 45 45 45 46 46 45 44 43 41 38 35 33 32 30 29 29 28 28 29 29 29 30 33 35 34 33 33 32 31
48 49 49 48 48 45 44 45 45 44 44 44 44 44 43 43 43 43 42 41 39 38 36 34 33 31 30 28 27 27 26 26 25 25 26 27 28 30 31 32 33 32 29
43 42 41 40 40 39 36 36 38 39 39 38 38 38 39 39 39 38 37 36 36 35 34 33 32 31 30 29 27 26 26 25 24 23 23 23 23 24 26 26 26 26 25
37 34 33 33 32 31 30 31 32 33 34 34 34 34 34 35 35 34 34 34 34 34 34 33 32 32 31 30 29 28 27 26 25 24 23 23 22 21 22 23 23 23 22
31 30 29 28 25 25 27 28 30 31 31 31 31 31 32 32 32 31 32 33 33 33 33 33 32 32 32 32 31 31 30 29 28 27 26 25 24 23 22 22 22 22 21
24 24 23 23 23 24 25 27 28 29 30 30 30 31 31 31 30 30 31 31 31 31 31 32 32 32 32 32 32 32 32 33 32 31 30 30 29 28 27 26 25 25 24
17 18 18 19 20 23 24 25 26 27 29 30 30 30 30 29 29 29 29 30 30 30 31 32 32 33 33 33 33 33 33 34 34 34 34 34 33 33 32 31 30 29 28
14 15 16 18 20 22 23 24 25 26 27 28 28 28 28 28 28 29 29 29 29 30 30 31 31 31 31 32 32 33 33 34 34 34 34 34 34 35 35 35 34 34 33
13 14 16 17 19 21 22 23 23 24 24 24 25 26 26 26 27 27 27 27 27 27 28 28 29 30 30 31 31 31 32 32 33 33 34 34 35 35 36 36 36 36 36
13 13 14 15 16 16 17 19 20 21 21 21 22 22 22 21 21 21 22 22 24 25 25 26 27 28 28 29 29 30 30 30 30 31 32 33 33 34 34 35 36 37 37
14 14 13 13 13 14 15 15 16 17 18 19 19 19 18 18 18 19 19 21 22 22 23 24 24 25 26 27 27 27 26 27 28 28 29 30 31 31 32 33 35 36 37
13 13 12 12 12 11 12 12 13 14 14 15 15 15 15 15 16 16 17 18 19 20 20 21 22 22 23 23 24 24 25 25 26 26 27 28 28 29 30 30 31 32 34
11 11 10 10 10 10 10 11 11 12 11 12 12 12 12 13 14 14 15 16 16 17 18 19 20 20 21 23 24 25 25 26 27 27 27 28 28 28 28 29 29 30 31
10 9 8 8 7 8 8 8 8 9 9 10 10 10 11 11 11 12 13 13 14 15 16 18 20 21 22 24 25 27 28 29 29 29 29 29 29 30 29 29 29 29 29
8 8 7 6 6 6 6 6 6 7 7 8 8 8 8 8 9 10 11 12 13 15 17 18 20 22 23 25 26 28 29 29 30 30 30 30 30 30 31 32 32 31 30
9 8 8 7 6 6 6 6 6 6 6 6 7 7 7 8 9 10 11 12 14 15 17 18 20 22 24 25 26 26 27 27 28 29 29 29 30 30 31 32 32 33 33
12 11 10 10 9 8 8 7 7 7 7 7 8 8 9 9 10 11 12 14 15 16 18 19 21 22 23 23 24 24 25 25 25 26 27 27 28 29 30 32 33 34 34
Wind_Direction
266 267 267 268 267 262 260 261 265 269 272 275 279 282 284 286 288 290 292 294 295 296 297 298 299 300 302 303 304 305 306 306 305 304 300 294 287 278 275 273 272 268 264
269 270 271 270 269 268 264 262 262 264 267 270 275 279 282 284 286 288 290 291 293 293 293 293 294 296 297 299 300 301 301 300 300 298 295 289 285 280 276 273 269 266 262
272 273 273 272 270 272 270 268 267 267 268 268 271 275 278 281 282 284 286 288 289 290 290 292 293 294 295 296 296 297 296 296 295 294 290 285 279 275 275 272 269 265 261
271 272 272 273 272 272 271 269 268 268 269 268 270 273 276 278 280 281 283 285 287 289 290 291 292 293 293 293 293 293 293 292 291 289 286 282 277 270 268 268 268 264 259
270 270 271 272 273 272 272 270 269 268 268 270 272 275 276 277 279 280 282 284 286 289 291 292 293 293 292 291 291 290 289 288 287 284 282 277 273 269 265 263 264 263 259
268 269 270 270 271 270 271 271 272 271 271 272 274 276 277 278 279 280 282 284 286 289 290 292 292 292 291 290 289 288 286 285 283 280 277 275 271 269 266 264 263 261 258
266 267 268 269 268 268 269 270 270 272 273 273 274 275 277 278 279 281 282 284 286 288 289 291 291 291 290 289 287 286 284 282 281 278 275 272 269 268 267 267 264 260 257
264 264 266 267 267 268 268 267 267 269 271 273 274 275 276 277 279 281 283 285 286 288 289 290 290 290 289 288 287 285 283 283 281 277 274 272 268 269 268 267 266 263 258
262 263 265 265 266 267 266 266 265 266 268 271 273 274 274 276 278 280 283 284 286 287 288 289 289 289 289 287 286 285 285 284 282 280 276 273 271 269 270 267 266 262 259
262 263 265 266 266 266 265 263 262 263 266 269 271 272 273 274 276 278 281 282 284 285 287 288 289 289 288 287 285 286 287 287 286 284 281 276 274 270 267 266 264 261 260
263 263 264 264 265 269 265 260 259 262 266 268 269 270 270 272 274 276 279 280 282 283 285 287 288 287 287 286 285 286 287 288 290 289 286 281 276 271 265 260 259 257 256
264 263 262 264 265 266 267 263 261 262 264 267 268 268 269 271 273 275 277 278 280 281 283 285 285 284 284 283 283 285 285 286 288 288 287 286 282 276 271 266 262 257 254
267 265 264 265 265 264 264 263 262 262 263 265 266 267 268 270 272 274 276 277 278 279 281 282 282 282 282 281 280 280 281 282 283 284 285 283 282 280 276 269 265 261 255
267 264 265 263 261 261 261 261 260 261 263 264 266 267 269 270 271 273 275 276 277 278 279 280 280 281 281 280 279 278 278 279 279 279 279 278 277 276 274 271 268 265 263
270 266 267 263 259 260 261 260 259 260 262 264 265 267 268 270 271 272 273 274 275 277 278 279 279 280 281 281 280 279 278 278 277 277 276 275 273 273 272 271 269 267 265
276 268 267 262 258 257 258 258 258 258 259 261 263 265 266 267 268 270 271 273 274 276 278 279 280 281 281 282 281 280 279 278 277 276 275 273 272 270 269 269 267 266 264
280 272 267 262 257 255 255 256 255 255 257 258 259 261 263 265 268 269 271 272 275 277 278 280 281 281 282 282 281 280 279 279 277 276 274 272 271 269 268 267 266 265 264
293 282 275 266 258 254 253 252 251 253 255 256 258 260 262 264 267 269 271 274 276 279 281 282 284 284 285 284 283 282 281 279 278 276 274 272 270 267 266 264 263 262 261
298 289 280 271 262 258 257 254 251 253 254 256 257 259 262 266 269 271 275 278 281 283 285 286 287 288 288 288 286 285 284 282 280 278 276 275 272 269 266 264 262 260 258
303 295 288 280 271 264 262 260 256 254 254 254 256 260 264 268 272 276 280 282 285 287 290 291 292 292 291 291 290 289 287 285 283 282 280 278 276 273 271 268 265 262 259
308 301 295 290 285 278 271 265 262 259 256 255 257 260 265 271 275 280 285 288 291 293 295 296 297 297 297 296 295 295 294 291 289 288 285 283 281 279 277 273 270 267 263
316 309 303 297 290 283 275 269 262 259 257 257 258 262 268 273 279 283 287 291 294 298 299 300 301 301 302 301 300 299 298 295 292 290 288 286 283 282 280 278 275 272 269
326 322 314 305 293 284 277 268 262 259 259 259 262 265 269 274 279 284 289 293 297 299 301 302 303 303 303 302 301 299 298 295 293 289 286 284 282 281 279 277 276 274 271
325 324 320 311 297 285 277 269 264 262 262 261 260 263 267 272 277 283 290 296 299 302 303 304 305 305 305 304 303 301 299 296 293 290 288 285 283 281 278 275 273 272 270
307 310 310 306 299 290 281 273 269 267 264 263 263 267 272 278 284 291 296 300 303 306 308 309 309 310 310 310 309 308 305 302 298 295 292 290 285 282 279 276 272 269 267
290 292 293 293 292 289 286 280 275 273 271 271 272 276 280 286 291 295 299 303 306 309 311 313 315 316 318 318 317 316 313 310 308 305 301 297 293 288 283 280 276 273 270
Height
5884 5884 5884 5884 5884 5884 5884 5885 5885 5884 5885 5885 5885 5885 5885 5884 5884 5883 5882 5882 5881 5880 5879 5878 5877 5875 5874 5872 5871 5869 5867 5865 5863 5862 5860 5858 5855 5854 5853 5853 5852 5852 5851
5875 5875 5875 5875 5874 5873 5874 5874 5874 5875 5876 5876 5877 5877 5877 5877 5876 5875 5874 5873 5873 5872 5871 5870 5869 5868 5866 5865 5863 5861 5859 5857 5856 5854 5853 5851 5849 5847 5846 5845 5845 5844 5844
5866 5866 5867 5868 5867 5866 5866 5866 5865 5865 5866 5867 5868 5868 5868 5868 5868 5867 5866 5865 5864 5864 5863 5862 5861 5859 5858 5856 5854 5852 5850 5849 5847 5845 5844 5843 5842 5840 5839 5838 5837 5837 5837
5856 5856 5856 5856 5856 5856 5856 5856 5855 5856 5856 5857 5858 5859 5860 5860 5859 5859 5858 5857 5856 5855 5854 5853 5852 5851 5849 5847 5845 5842 5840 5839 5837 5835 5834 5833 5832 5832 5832 5830 5830 5830 5830
5847 5846 5846 5846 5845 5845 5844 5844 5845 5846 5846 5847 5848 5849 5850 5851 5850 5850 5849 5848 5847 5846 5845 5843 5842 5841 5839 5837 5835 5832 5830 5828 5827 5826 5824 5824 5823 5822 5823 5823 5822 5822 5822
5838 5837 5836 5836 5835 5834 5833 5833 5834 5836 5837 5838 5839 5839 5840 5841 5841 5841 5841 5840 5839 5837 5836 5834 5832 5830 5828 5826 5824 5822 5820 5818 5817 5816 5815 5814 5814 5813 5813 5814 5813 5813 5813
5828 5827 5826 5825 5823 5822 5823 5825 5826 5827 5828 5829 5830 5830 5831 5831 5831 5832 5831 5831 5830 5828 5826 5824 5822 5820 5818 5816 5814 5812 5810 5808 5807 5806 5805 5804 5804 5804 5804 5804 5804 5804 5804
5817 5816 5815 5814 5813 5813 5814 5815 5816 5818 5819 5819 5820 5821 5821 5822 5822 5822 5822 5821 5820 5818 5816 5814 5812 5810 5807 5806 5804 5802 5801 5799 5797 5796 5796 5795 5795 5795 5795 5795 5795 5794 5795
5804 5803 5803 5803 5802 5802 5803 5804 5806 5807 5809 5809 5810 5810 5811 5811 5811 5811 5811 5810 5809 5807 5805 5803 5801 5800 5798 5796 5795 5793 5792 5790 5789 5788 5787 5786 5786 5786 5786 5785 5785 5785 5785
5791 5790 5790 5790 5791 5790 5791 5792 5794 5796 5797 5798 5799 5799 5800 5800 5801 5801 5800 5799 5798 5796 5795 5793 5792 5791 5789 5788 5787 5785 5784 5783 5781 5780 5778 5778 5777 5777 5776 5776 5776 5776 5776
5777 5777 5777 5777 5778 5779 5779 5779 5781 5784 5786 5787 5788 5788 5789 5789 5790 5791 5790 5789 5788 5787 5786 5785 5784 5782 5781 5780 5779 5778 5777 5775 5774 5772 5771 5770 5769 5768 5768 5767 5767 5768 5768
5763 5763 5763 5765 5766 5768 5769 5770 5771 5773 5775 5776 5777 5778 5779 5780 5780 5780 5780 5780 5779 5778 5777 5776 5776 5774 5774 5773 5772 5771 5770 5769 5767 5766 5765 5763 5762 5761 5760 5760 5759 5760 5760
5751 5751 5752 5754 5755 5757 5759 5761 5762 5764 5765 5766 5767 5768 5769 5770 5771 5771 5771 5770 5770 5769 5769 5768 5767 5767 5766 5765 5765 5764 5763 5762 5761 5760 5759 5758 5756 5755 5755 5754 5754 5754 5754
5740 5742 5743 5744 5746 5748 5749 5751 5753 5755 5756 5757 5758 5759 5761 5761 5762 5762 5762 5762 5761 5761 5760 5760 5759 5759 5758 5757 5757 5756 5755 5755 5754 5753 5752 5751 5750 5749 5749 5749 5748 5748 5749
5731 5733 5734 5736 5738 5739 5741 5742 5744 5745 5747 5748 5750 5751 5752 5753 5753 5753 5753 5753 5753 5753 5752 5752 5751 5750 5750 5749 5748 5747 5746 5746 5745 5744 5744 5743 5743 5742 5742 5742 5742 5742 5742
5725 5725 5726 5727 5729 5731 5732 5734 5735 5737 5739 5740 5741 5743 5744 5744 5744 5745 5745 5745 5745 5744 5744 5743 5742 5742 5741 5740 5739 5738 5737 5736 5735 5734 5734 5733 5733 5733 5733 5733 5733 5734 5734
5720 5720 5720 5720 5721 5723 5724 5726 5727 5729 5730 5731 5733 5734 5735 5736 5736 5736 5737 5737 5737 5736 5735 5734 5733 5732 5731 5730 5729 5728 5727 5726 5724 5723 5723 5722 5722 5722 5722 5722 5723 5724 5725
5716 5715 5715 5715 5715 5716 5717 5718 5720 5721 5722 5723 5725 5726 5726 5727 5727 5728 5729 5729 5728 5728 5727 5726 5725 5723 5722 5721 5720 5718 5717 5715 5714 5712 5711 5711 5710 5710 5710 5711 5711 5712 5713
5714 5712 5711 5711 5711 5711 5711 5712 5713 5714 5715 5716 5717 5718 5719 5719 5720 5721 5721 5721 5721 5720 5719 5718 5716 5715 5713 5712 5710 5709 5707 5705 5704 5702 5701 5700 5699 5699 5699 5699 5699 5700 5701
5711 5709 5708 5707 5706 5706 5706 5707 5707 5708 5709 5710 5711 5712 5712 5713 5714 5714 5715 5714 5714 5713 5711 5710 5708 5706 5704 5703 5701 5700 5698 5696 5695 5693 5691 5690 5689 5688 5687 5688 5688 5688 5689
5708 5706 5705 5704 5703 5702 5702 5703 5703 5704 5705 5705 5706 5707 5707 5708 5708 5709 5709 5708 5707 5706 5704 5703 5701 5699 5697 5695 5693 5692 5690 5688 5687 5685 5683 5681 5680 5679 5678 5677 5677 5677 5677
5706 5704 5702 5701 5700 5700 5700 5700 5700 5701 5701 5702 5702 5703 5703 5703 5703 5703 5703 5702 5701 5700 5698 5697 5695 5692 5691 5689 5687 5685 5683 5681 5679 5677 5675 5674 5672 5671 5669 5668 5667 5667 5667
5705 5703 5701 5700 5699 5698 5698 5698 5698 5698 5698 5698 5699 5699 5699 5699 5699 5698 5698 5697 5696 5695 5693 5691 5689 5687 5685 5682 5680 5678 5675 5673 5671 5669 5667 5665 5664 5662 5661 5659 5658 5658 5657
5704 5702 5700 5699 5698 5697 5696 5696 5696 5696 5695 5695 5695 5695 5695 5695 5694 5694 5693 5692 5691 5690 5688 5686 5684 5682 5679 5676 5673 5670 5667 5664 5662 5660 5658 5656 5654 5652 5651 5650 5649 5648 5648
5703 5701 5699 5698 5697 5696 5695 5694 5694 5693 5693 5692 5692 5692 5691 5691 5690 5690 5689 5688 5687 5685 5683 5681 5679 5676 5673 5670 5666 5663 5659 5656 5653 5651 5648 5646 5644 5642 5640 5639 5638 5637 5637
5700 5699 5697 5696 5695 5694 5693 5692 5692 5691 5690 5690 5689 5688 5688 5687 5687 5686 5685 5684 5682 5680 5678 5676 5673 5670 5667 5663 5659 5656 5652 5649 5646 5643 5640 5637 5634 5632 5630 5628 5627 5626 5626